Theta_e
327 330 332 333 333 333 333 333 333 334 335 336 335 335 334 330 328 333 337 336 336 337 336 335 334 332 332 332 332 330 326 326 328 330 330 330 330 330 330 330 330 331 332 332 332 333 333 332 331 331 331 331 332 331 329 329 330 330 328 326 327 329 328 328 327 328 328 328 329 328 328 328 328 328 326 323 320 320 320 321 321 322 324 326 327
327 330 331 332 332 333 333 333 333 334 334 334 334 333 332 330 331 336 338 336 335 335 333 333 332 331 332 332 331 328 325 325 328 330 330 330 330 330 330 329 329 330 331 330 330 332 331 331 331 331 331 331 330 330 329 329 329 328 327 327 328 328 328 328 327 328 328 329 330 329 328 328 328 328 326 322 319 319 320 321 321 321 323 325 327
328 329 332 332 332 333 333 333 333 334 333 333 334 332 330 333 336 337 337 335 335 334 332 331 331 331 331 330 330 327 324 326 328 329 329 329 329 329 329 329 330 330 331 330 329 330 329 330 330 330 330 330 330 329 329 329 328 327 327 326 327 327 327 327 327 327 328 328 330 330 329 328 328 328 326 321 319 319 320 320 320 320 321 322 324
329 329 331 332 333 334 334 333 333 333 333 333 334 333 332 336 338 337 336 334 334 333 331 331 332 333 331 329 328 325 323 325 328 328 328 328 327 327 327 327 328 329 330 329 328 328 327 328 329 329 329 329 330 330 330 329 329 329 327 326 327 327 327 326 326 326 327 328 329 328 328 328 327 328 327 322 318 319 319 318 318 319 319 320 320
329 330 331 331 333 334 334 334 333 333 333 333 334 333 334 336 338 337 334 333 333 332 330 331 333 332 330 329 327 324 324 324 325 325 325 325 324 324 323 323 323 324 325 326 325 324 323 324 325 325 326 328 329 329 329 329 329 329 328 328 328 328 327 326 326 326 327 327 328 328 328 328 327 327 327 323 319 318 317 315 315 316 316 318 318
329 329 330 331 333 334 334 334 333 334 333 332 331 331 331 331 335 337 332 331 332 331 331 331 332 330 329 327 325 324 324 323 322 321 321 321 321 321 320 319 319 319 321 323 322 321 321 321 321 322 323 326 328 328 328 328 328 328 328 328 328 329 328 327 326 326 326 326 326 326 326 327 328 327 326 324 321 319 317 315 314 314 315 315 316
327 328 329 330 332 333 334 334 333 331 328 326 327 328 329 330 332 333 332 331 331 331 331 330 330 329 328 325 323 323 323 320 320 320 320 320 320 319 318 318 318 319 321 323 322 322 322 322 323 323 323 325 327 327 327 327 327 327 327 328 328 328 328 328 327 325 326 326 326 326 325 324 325 326 326 324 322 319 315 314 313 312 312 313 312
326 327 328 329 331 332 333 331 327 325 324 325 326 327 329 331 331 329 330 330 329 329 329 328 328 328 326 324 322 321 321 320 319 320 320 319 319 318 318 318 318 319 320 322 323 322 321 321 323 324 323 323 325 326 327 327 327 327 327 327 327 327 328 327 326 326 326 326 326 326 326 325 324 325 326 325 321 316 314 314 312 310 310 310 311
326 327 328 329 331 331 331 328 324 325 326 326 327 328 328 328 327 325 325 326 327 327 327 327 327 326 325 323 322 321 320 319 319 319 319 319 318 318 318 318 318 318 319 322 324 322 318 318 321 323 323 323 324 324 325 326 326 327 327 327 326 327 328 327 327 326 326 326 326 326 326 325 323 322 322 321 318 314 313 315 314 312 311 310 310
325 325 327 328 329 329 328 326 325 326 326 325 326 327 326 324 323 322 322 323 325 326 326 326 326 325 324 323 321 320 319 319 319 318 318 318 318 318 318 318 318 318 318 320 321 320 318 319 321 323 323 323 324 324 324 325 326 327 327 327 327 327 327 327 326 326 326 326 325 324 323 322 320 318 316 314 313 313 314 315 316 315 312 311 311
324 324 325 326 326 327 327 327 327 327 327 326 324 324 323 321 321 321 321 322 324 325 325 325 325 324 324 323 321 319 318 317 317 318 318 317 317 317 317 317 317 317 318 318 319 318 318 319 320 322 322 322 322 323 323 324 324 325 326 327 327 327 327 327 326 325 326 324 321 320 320 318 317 316 313 311 311 312 314 315 315 314 312 310 310
323 322 323 323 324 326 327 328 328 327 327 325 323 323 323 323 322 322 321 321 322 324 324 324 324 324 324 323 321 319 317 314 314 316 317 317 317 316 316 316 317 317 317 317 317 317 317 319 320 321 321 321 321 321 322 323 322 323 324 325 326 326 326 325 325 323 321 318 316 316 315 314 314 312 310 310 310 311 313 315 314 313 312 310 309
322 322 322 323 325 325 326 328 329 328 326 325 324 324 323 323 323 324 323 322 322 323 323 324 324 324 324 323 320 318 316 313 311 313 315 316 316 316 316 316 317 317 317 316 316 317 317 319 320 320 320 320 319 320 321 319 318 318 319 321 322 324 323 322 321 319 316 314 312 311 310 310 308 307 306 307 308 310 313 314 314 313 312 310 308
322 321 322 323 325 327 325 326 327 327 325 325 326 326 325 324 324 325 324 323 322 322 321 323 323 323 322 321 319 318 315 312 311 311 314 316 315 315 315 316 317 317 316 316 315 317 318 318 319 318 318 318 318 319 319 317 317 316 316 316 317 318 318 317 316 314 312 310 308 306 305 304 303 303 304 306 308 310 311 312 312 312 311 309 308
321 321 322 325 327 328 326 324 323 323 325 325 325 326 325 324 324 325 324 323 322 321 320 321 321 320 320 319 318 316 313 312 311 312 314 316 315 315 315 314 316 315 314 313 312 314 317 318 318 317 316 316 316 316 316 315 315 313 312 311 312 313 313 311 310 307 305 304 303 302 301 301 301 303 305 308 309 309 309 311 311 311 310 310 309
322 322 324 328 330 328 325 325 323 323 324 325 324 325 324 324 325 325 324 324 323 321 321 322 321 320 320 319 317 315 314 313 313 314 316 316 316 315 314 314 314 313 312 311 310 310 313 314 314 313 312 312 312 314 314 313 310 307 307 308 309 309 307 305 304 302 301 301 300 300 301 303 304 305 307 307 307 307 307 310 311 311 310 310 310
321 322 324 326 328 327 325 325 323 321 323 324 325 325 324 324 324 324 325 324 322 320 321 321 321 321 320 318 317 316 315 315 315 315 316 316 316 316 315 313 312 313 312 311 309 308 309 310 309 307 305 305 307 309 309 307 304 304 305 306 306 305 303 301 300 300 300 299 300 300 303 305 306 306 307 306 307 306 307 308 309 311 310 310 309
319 319 320 321 323 324 323 321 320 319 320 322 325 325 324 324 324 324 325 324 321 320 320 320 320 319 318 317 317 316 314 313 313 313 312 314 317 316 314 312 310 312 313 312 310 308 309 308 307 303 302 301 302 303 303 303 302 303 304 304 304 303 302 302 301 301 301 300 301 303 305 306 306 306 306 305 306 306 306 307 307 309 310 310 311
318 318 318 319 321 322 322 321 321 319 318 319 323 324 323 323 324 324 324 323 322 320 319 319 319 319 319 318 317 316 314 312 312 311 311 312 315 316 314 312 309 309 311 312 310 309 309 309 308 306 304 303 302 301 303 303 302 302 303 303 304 303 303 304 303 303 303 303 304 304 305 306 305 305 305 305 305 306 307 308 307 308 309 309 310
318 317 317 318 320 321 321 322 321 320 319 318 321 323 323 323 322 322 322 322 321 321 320 319 319 319 320 319 317 316 315 313 311 312 314 312 313 316 315 313 310 307 308 310 310 310 309 310 310 309 309 307 304 303 304 305 305 304 303 303 303 303 304 304 304 303 303 304 305 306 306 306 305 305 305 304 305 305 306 308 308 308 308 308 309
316 315 315 316 318 319 319 320 321 321 320 320 321 323 323 323 322 322 322 322 321 321 320 319 319 319 319 319 317 316 316 314 311 312 314 312 313 316 316 314 312 308 307 308 308 309 310 310 310 311 311 311 309 306 306 307 308 308 306 305 304 304 304 304 304 303 303 303 305 305 305 304 304 304 305 305 305 305 305 306 307 308 308 307 307
313 312 312 312 314 314 314 316 318 320 321 321 321 322 323 323 322 321 321 322 321 320 320 319 319 318 319 318 317 317 317 315 313 313 313 313 314 316 317 315 313 310 308 308 307 308 310 310 311 311 311 312 311 310 308 308 309 309 309 308 307 306 306 306 305 304 304 304 304 304 304 303 303 303 304 306 306 306 306 306 307 308 307 305 305
310 309 309 310 310 310 310 311 313 315 318 320 322 322 322 322 322 322 321 321 321 320 320 319 318 318 318 317 316 317 317 316 315 314 315 315 316 317 317 316 314 312 310 309 308 307 309 310 310 311 311 312 312 311 310 309 308 309 310 310 309 308 308 308 307 307 306 305 305 305 304 304 304 304 304 306 305 306 307 306 306 306 305 303 303
307 307 307 308 308 307 308 308 309 311 313 316 319 321 322 321 321 322 322 321 321 320 319 319 318 318 318 317 315 316 316 315 314 315 317 318 317 317 317 317 316 314 312 311 310 309 309 310 311 310 311 311 311 311 311 310 309 309 309 310 310 310 309 309 309 309 308 307 307 306 306 305 305 305 305 305 305 305 306 306 305 305 304 303 302
307 306 306 306 306 305 306 306 306 307 309 312 315 318 320 320 320 321 321 321 321 320 320 319 319 319 318 317 316 315 314 314 314 314 316 318 318 317 318 317 317 316 314 312 311 310 310 311 311 311 310 310 310 310 311 311 310 310 310 310 310 310 310 310 310 310 309 309 308 308 307 306 306 305 306 306 305 305 306 306 306 304 304 303 302
306 306 306 306 306 306 306 305 305 305 306 308 310 313 316 318 320 320 320 320 320 320 320 319 319 319 318 318 316 314 314 313 313 314 315 316 318 318 317 318 317 317 316 314 312 311 311 311 312 312 311 311 312 312 312 311 311 312 312 312 312 311 311 311 310 310 310 310 310 309 309 308 307 307 306 306 306 305 305 305 305 304 303 303 302
306 306 306 306 306 306 306 306 305 305 304 305 306 308 312 315 317 318 320 320 320 320 319 319 319 318 317 317 315 314 314 314 314 314 315 316 317 317 317 317 317 317 316 315 313 312 312 312 313 313 313 313 314 314 314 314 314 314 314 315 315 314 312 311 311 311 311 311 310 310 310 309 309 308 308 307 306 306 306 305 305 304 303 303 302
306 306 306 306 306 306 307 306 306 305 305 304 304 305 307 311 314 316 318 319 320 320 319 319 319 318 318 317 315 315 315 316 315 315 315 316 316 317 317 317 317 316 316 316 315 313 313 314 314 314 314 314 314 315 315 314 314 315 315 316 317 316 315 314 313 314 314 315 313 312 311 311 310 310 309 309 308 307 306 306 305 305 304 303 303
305 305 305 305 305 306 307 306 305 305 305 305 304 304 304 307 310 314 316 318 318 320 320 320 319 319 318 318 317 316 316 315 315 314 315 315 316 316 317 317 317 317 316 315 314 314 314 314 315 315 315 314 314 314 314 314 314 315 316 316 316 316 316 316 315 316 315 315 315 315 315 314 313 312 311 309 308 308 307 306 306 306 304 303 302
304 304 304 304 305 306 306 306 305 305 305 305 305 305 304 304 305 308 312 315 317 318 319 320 320 320 319 318 317 316 315 315 315 315 315 316 316 317 317 317 317 316 316 315 315 315 315 315 315 314 315 314 314 313 312 313 314 314 315 316 316 316 316 316 316 316 315 315 315 315 316 316 316 314 313 312 310 308 307 307 307 307 305 303 302
302 302 303 303 305 306 306 305 305 305 305 305 304 304 304 304 303 304 306 310 314 316 317 318 319 318 319 318 318 317 317 316 316 316 317 317 317 318 318 317 317 316 315 315 315 315 315 315 315 314 314 314 314 312 311 312 313 314 315 316 316 316 316 316 316 317 317 317 317 317 317 317 317 316 316 315 314 311 308 306 306 307 306 303 302
300 300 301 301 302 304 305 305 304 304 303 304 304 304 304 304 303 303 303 304 308 311 313 315 316 316 317 317 318 318 317 318 317 317 318 318 317 317 317 317 316 316 316 315 315 315 316 316 316 314 314 314 313 312 311 312 313 315 315 313 311 310 310 311 313 314 315 316 317 317 317 317 317 317 317 316 315 313 309 306 306 306 304 302 302
299 299 299 300 301 302 303 303 303 303 302 302 302 302 303 302 303 304 304 304 304 305 307 309 311 312 314 316 318 318 318 318 318 318 318 318 317 317 316 316 316 316 316 316 316 316 316 316 316 315 314 314 314 312 311 312 314 314 311 308 306 307 309 311 312 313 315 315 315 315 316 316 316 316 315 315 314 313 309 306 305 304 302 300 301
298 298 299 299 300 301 301 301 301 301 300 300 300 300 300 301 302 304 304 304 304 304 304 304 305 307 309 312 316 317 318 318 318 318 318 318 317 316 316 316 316 317 316 316 316 316 316 316 316 315 315 315 314 312 312 314 314 311 307 306 307 308 310 311 311 312 313 313 313 314 313 313 313 313 312 311 310 310 307 306 304 302 300 300 301
298 298 299 299 299 300 300 299 299 299 299 299 298 298 299 300 301 302 303 304 304 304 304 304 303 304 305 307 312 315 317 318 317 317 318 318 317 317 317 317 316 316 316 316 316 316 316 315 315 314 315 314 312 312 314 314 312 308 307 307 307 307 307 308 309 310 310 311 311 312 312 311 311 310 309 308 308 307 306 304 302 300 299 299 300
298 298 299 299 298 299 299 298 298 298 298 298 298 298 298 299 299 300 301 303 303 304 304 303 303 304 303 304 307 311 314 317 317 317 317 317 317 316 316 317 316 317 317 316 316 316 316 315 314 315 315 314 313 315 315 312 310 308 308 307 307 307 307 307 308 308 309 309 310 310 311 310 309 307 306 306 305 305 304 302 301 299 299 299 299
298 298 298 298 297 298 298 297 298 298 298 298 298 297 298 299 299 299 300 301 302 303 303 303 303 303 303 303 304 306 309 313 316 317 317 317 317 316 316 316 315 316 316 316 316 316 316 315 315 315 315 315 316 316 314 311 310 309 308 308 308 308 307 307 307 307 307 307 308 308 309 308 306 304 304 304 303 303 302 301 300 299 298 298 298
297 297 297 297 297 297 297 297 297 298 297 297 297 298 298 298 299 299 299 300 301 301 301 301 301 302 302 303 303 304 306 308 311 314 315 315 316 316 316 315 315 315 315 315 315 316 316 316 316 316 316 316 316 314 312 310 310 309 308 308 308 307 307 307 307 306 306 306 306 306 306 307 305 303 302 303 303 302 301 301 300 299 299 298 298
297 297 297 297 296 296 297 296 297 297 296 296 296 296 297 298 299 298 299 300 300 299 299 299 300 301 302 302 303 304 305 306 307 310 313 313 314 315 315 315 315 315 315 315 315 315 316 316 315 315 316 316 314 312 311 311 310 310 308 308 308 308 307 307 306 305 305 304 304 304 304 304 304 303 303 303 303 302 302 301 301 301 300 298 297
296 296 295 295 295 295 295 295 295 295 295 294 294 295 296 298 298 298 299 299 298 298 298 298 299 300 300 302 302 303 304 305 306 308 311 312 314 314 315 316 316 316 316 316 316 316 316 315 315 315 315 314 312 311 311 311 310 310 309 308 308 308 307 306 305 304 303 303 302 302 301 301 302 302 302 302 301 301 301 301 300 300 300 298 296
295 294 294 294 294 294 294 294 294 294 293 293 293 294 296 297 297 297 299 298 298 297 298 298 298 299 300 300 301 302 302 304 305 307 308 309 310 312 313 314 315 315 315 315 314 315 315 314 315 315 314 312 312 312 311 310 310 310 309 308 308 307 307 306 304 302 302 301 301 300 300 299 300 300 300 300 300 300 299 299 298 298 297 296 295
294 294 293 293 293 293 293 293 293 293 293 293 293 294 295 296 297 297 297 297 297 297 298 298 298 298 299 299 300 301 301 302 304 306 307 306 307 308 310 310 311 312 312 312 312 313 313 313 313 314 313 312 312 312 311 310 310 309 309 308 307 307 306 305 304 302 301 301 300 300 299 298 299 299 299 298 298 297 297 296 296 295 295 294 294
293 293 292 292 292 292 292 292 292 292 292 292 293 293 294 295 296 296 296 296 296 296 297 297 297 298 298 299 299 300 301 301 303 304 305 306 306 306 307 307 308 308 309 309 310 311 312 312 312 312 312 312 311 311 310 309 309 308 307 307 306 306 305 305 304 303 301 300 300 299 298 298 297 297 297 297 296 295 295 294 294 293 293 293 293
292 292 291 291 292 292 292 292 291 291 291 291 292 292 293 294 294 295 295 295 295 295 295 296 296 297 297 298 298 299 300 300 301 302 303 304 305 305 306 306 306 306 306 307 309 310 310 310 310 311 311 311 310 309 308 308 307 306 306 305 305 305 304 304 303 302 301 300 298 298 297 296 296 296 296 295 294 294 293 293 293 293 292 292 293
292 291 291 291 291 291 291 291 291 291 291 291 291 291 292 293 293 293 293 293 294 294 294 295 295 296 297 297 298 298 299 300 300 301 302 303 304 304 305 306 305 306 305 305 307 308 307 306 307 308 309 309 308 307 306 305 304 303 304 304 304 304 303 302 301 300 299 298 297 297 296 295 295 295 294 294 293 293 293 292 292 292 292 292 292
291 291 291 291 291 291 291 291 291 291 291 291 291 291 291 291 292 292 292 292 292 293 293 294 294 295 295 296 297 298 299 299 299 300 301 303 303 303 304 305 305 305 305 304 305 306 305 304 305 306 307 307 306 304 303 301 301 302 302 302 302 302 301 300 299 298 297 296 296 295 295 295 294 294 293 293 292 292 292 292 292 291 292 292 292
291 291 291 290 291 291 291 291 291 291 291 290 290 290 290 291 291 291 291 291 291 292 293 293 294 294 295 296 297 297 298 299 299 299 300 301 302 303 304 304 305 305 305 304 304 304 304 304 304 305 304 303 302 301 300 300 301 302 302 301 301 300 299 297 297 297 296 295 295 294 294 293 293 292 292 292 292 292 292 291 291 291 291 291 290
291 291 290 291 290 290 291 291 291 291 291 291 291 291 291 291 291 291 291 291 291 291 292 293 293 294 295 295 296 297 297 298 299 299 299 300 300 301 302 304 304 305 305 304 303 303 304 304 304 304 302 301 301 301 302 304 304 304 302 300 299 298 297 297 297 296 295 294 294 293 293 292 292 292 292 292 292 291 291 291 291 291 290 290 289
291 291 290 290 290 290 290 290 291 291 291 291 291 291 291 291 291 291 291 291 291 291 291 292 293 294 295 296 296 296 297 298 299 299 299 299 300 299 300 301 303 303 304 304 304 304 304 303 304 304 303 302 302 303 303 304 305 305 304 301 299 298 297 296 296 295 294 294 293 293 292 292 292 292 292 292 292 291 291 290 290 289 290 290 289
291 291 290 290 290 290 290 290 291 291 291 291 292 292 292 292 292 292 291 291 291 291 291 292 292 294 295 296 296 297 298 298 299 300 299 299 300 299 299 299 300 300 301 302 302 302 302 303 303 304 304 303 303 302 302 303 303 302 301 301 299 298 297 295 295 294 294 293 293 293 293 292 293 293 292 292 292 291 291 290 290 289 289 289 289
291 290 290 290 290 290 291 291 291 291 292 292 292 292 292 292 292 292 292 291 291 291 291 291 292 293 294 295 296 297 298 299 299 299 299 299 299 299 299 299 298 298 298 299 300 300 301 301 302 302 302 302 302 302 303 302 301 299 299 298 297 296 295 295 294 294 293 293 293 293 293 292 292 293 292 292 291 291 290 290 290 290 290 289 289
Wind_Speed
6 9 11 11 9 13 16 15 16 17 20 23 23 22 21 20 18 16 19 22 23 23 22 21 18 15 12 10 10 10 8 6 6 7 8 9 9 10 10 9 7 6 6 7 8 8 9 9 8 8 7 6 5 6 6 6 7 8 8 10 8 7 6 5 5 7 7 6 4 3 3 3 3 3 4 6 6 4 4 3 4 4 4 4 3
7 8 9 10 9 11 15 16 17 17 19 22 23 23 23 23 21 18 19 21 22 24 23 21 18 16 13 11 12 12 9 6 7 9 10 11 11 10 10 10 8 7 6 6 8 8 8 8 7 6 5 5 5 6 7 8 8 7 8 8 8 8 6 6 7 7 6 5 4 3 3 2 3 4 5 6 7 6 5 4 4 3 2 3 3
8 8 8 10 11 11 13 15 18 19 21 24 25 25 25 23 20 18 19 20 21 21 20 18 16 14 13 13 13 12 10 7 9 11 12 12 12 12 11 10 8 7 8 9 10 9 8 8 7 6 6 5 6 6 7 8 8 7 7 7 7 7 6 6 7 6 4 4 4 3 2 2 3 5 6 9 9 8 7 5 5 3 1 2 3
9 9 9 10 11 11 12 15 19 20 21 23 24 25 25 23 18 16 18 19 19 18 16 15 15 14 13 14 12 11 10 10 11 13 13 14 14 14 13 11 9 8 9 10 11 11 10 9 8 6 6 6 6 6 6 7 7 7 8 9 8 7 6 6 7 7 5 5 3 1 1 2 2 4 7 10 11 11 11 9 7 6 4 3 2
10 10 9 10 11 12 13 14 17 20 22 25 26 25 23 20 17 17 18 18 18 17 16 16 16 16 15 14 12 11 11 10 12 13 13 14 14 13 12 10 9 8 8 9 10 11 10 9 8 6 6 6 6 6 7 7 7 7 8 9 9 9 8 7 7 7 7 7 4 2 1 1 2 6 7 7 10 12 11 10 10 10 9 8 8
8 8 8 9 10 11 12 14 16 16 14 10 9 10 13 14 17 21 21 20 20 18 17 18 18 18 17 16 14 13 11 10 11 11 11 11 12 11 10 8 7 6 6 7 8 9 8 7 7 6 6 5 5 5 6 7 7 7 8 9 8 8 9 8 7 6 6 7 7 4 3 2 4 6 5 5 8 10 11 12 13 14 14 14 14
6 7 7 8 10 11 12 11 5 7 19 29 26 15 13 15 19 25 25 22 21 20 19 19 18 18 17 15 14 13 12 11 11 10 9 9 9 9 9 8 8 7 6 6 7 7 6 7 6 5 5 5 5 5 6 7 7 8 8 9 8 7 7 7 7 8 6 5 5 4 3 5 7 6 4 5 7 7 11 15 17 18 20 19 17
7 7 7 8 9 10 7 8 21 27 28 26 20 15 17 22 23 23 24 23 22 21 20 19 18 18 17 14 13 13 12 13 12 10 8 8 9 9 9 9 8 7 6 6 6 6 5 5 4 4 5 6 7 7 7 7 7 7 7 7 7 6 6 6 7 9 8 7 5 4 4 6 7 5 5 6 6 6 8 12 17 22 24 23 20
6 6 5 6 7 5 7 21 27 20 13 13 17 17 17 22 22 19 19 21 22 22 21 19 18 17 16 14 14 13 12 13 13 10 9 7 7 8 8 8 8 6 6 6 7 6 4 3 3 4 5 7 8 9 8 7 6 6 6 6 7 7 5 5 7 8 9 9 7 6 6 7 8 7 6 6 7 6 6 7 11 16 20 20 19
5 5 5 5 5 8 16 23 21 15 13 17 20 18 8 4 6 10 14 17 20 22 22 20 18 17 15 14 13 13 13 13 12 11 10 8 7 7 6 6 6 6 6 5 6 5 3 3 4 6 7 8 9 9 8 7 7 6 6 7 8 8 6 6 7 8 8 9 8 9 9 9 8 7 7 7 6 6 7 8 9 10 12 13 15
5 6 6 7 9 14 19 21 20 18 17 19 23 23 13 12 10 5 6 12 16 19 21 21 20 18 15 12 10 10 11 12 12 11 10 9 8 8 6 5 5 6 6 5 5 4 3 4 6 8 8 9 9 8 8 8 9 9 8 8 8 8 8 8 8 8 9 10 10 9 8 7 7 6 6 6 7 8 8 8 9 10 11 11 12
7 7 7 9 11 14 17 18 18 18 18 21 25 25 21 14 9 3 1 5 10 14 19 21 20 19 16 13 10 8 8 9 10 10 9 9 9 8 7 7 7 7 7 6 5 4 4 4 6 8 8 8 8 7 9 11 12 13 12 12 11 11 12 12 12 13 13 14 12 10 9 8 7 7 7 6 7 9 11 10 10 10 10 10 9
8 7 8 8 8 11 13 12 12 14 18 22 23 23 23 22 20 15 8 6 10 17 21 23 21 20 18 15 12 8 7 7 8 8 8 9 9 8 8 8 9 8 7 6 5 4 4 5 6 6 7 7 7 8 10 12 13 14 14 15 15 15 15 15 15 16 15 14 13 11 11 10 10 10 10 9 9 11 12 11 9 8 9 10 7
8 8 8 8 8 9 10 11 11 11 13 18 21 22 23 23 24 24 20 17 20 21 20 19 19 19 19 17 14 11 9 8 7 7 8 8 8 8 8 9 9 8 7 6 5 4 4 5 5 5 6 6 7 8 10 12 12 12 13 14 15 15 15 14 15 14 13 12 12 13 13 13 13 12 11 10 10 10 12 13 11 8 9 10 8
8 9 9 9 9 7 8 11 12 9 11 15 20 24 26 27 27 28 29 28 25 19 13 13 15 18 19 18 15 13 12 11 9 8 8 7 7 7 7 8 8 7 7 6 4 4 5 5 4 4 5 6 8 9 10 10 9 10 12 12 13 13 13 12 12 12 12 12 13 14 15 14 14 14 13 12 10 10 12 14 13 10 7 7 8
8 9 9 9 10 8 5 4 4 8 13 16 21 26 28 29 29 31 33 30 25 19 17 19 20 20 20 19 17 15 14 13 11 10 9 7 7 7 6 7 7 6 6 5 4 4 5 5 4 4 5 6 8 9 9 8 8 9 11 12 13 12 12 12 13 13 13 13 13 14 15 15 15 15 15 15 15 14 12 11 9 9 8 6 5
6 7 6 5 5 4 1 1 2 7 14 18 22 25 27 28 30 32 32 27 23 22 24 26 24 19 17 17 16 14 13 12 11 9 7 8 9 8 6 6 6 5 5 4 4 5 6 5 5 5 6 6 7 7 7 7 9 10 12 12 12 12 13 13 13 13 13 14 14 16 17 16 16 15 14 15 16 17 15 11 7 6 6 5 5
6 6 6 7 6 4 3 3 3 5 11 16 21 24 27 28 29 30 31 27 23 24 25 24 21 17 16 17 16 13 11 13 13 9 6 8 10 9 8 6 5 6 6 5 4 5 6 6 6 6 6 7 7 7 8 8 9 11 12 12 12 12 13 13 13 13 14 14 15 16 17 16 15 13 13 13 13 15 15 14 12 9 7 6 6
6 7 6 6 7 6 7 6 3 3 7 13 19 23 25 25 23 23 26 28 26 24 21 20 22 21 20 18 15 14 13 13 15 11 5 6 8 9 10 8 6 6 7 7 6 5 6 6 6 7 7 7 7 8 8 8 9 10 11 11 11 11 11 12 12 12 13 13 14 15 15 14 13 11 10 10 10 11 12 12 12 12 10 9 7
5 6 6 7 9 10 10 8 6 5 7 11 16 20 19 19 19 18 21 25 25 23 20 19 21 23 23 20 18 19 17 14 15 13 7 10 10 10 12 10 8 7 7 8 8 6 6 6 6 6 6 6 6 6 7 7 8 9 9 10 10 10 10 10 10 10 10 11 11 12 12 11 10 9 9 9 9 10 10 10 10 11 11 10 8
6 6 6 7 10 12 12 10 8 8 7 8 10 13 14 15 16 16 17 20 22 23 22 20 21 23 24 22 22 24 21 16 15 14 14 16 14 10 12 13 11 9 7 7 9 8 8 7 6 5 5 5 4 5 5 5 6 6 7 8 8 8 8 9 9 9 9 10 10 9 9 9 8 8 8 8 8 9 9 9 9 9 9 8 8
8 8 8 9 11 12 12 11 11 10 10 8 7 7 9 10 12 13 14 16 17 20 22 23 23 23 25 24 22 23 22 18 16 15 18 19 14 12 14 15 14 13 10 8 8 9 9 8 7 6 5 5 5 4 4 4 4 3 3 4 5 5 6 6 7 8 8 9 8 8 8 8 7 7 7 7 7 8 8 8 7 7 8 8 7
10 10 10 11 12 12 12 13 14 13 12 10 8 6 5 7 9 11 12 13 14 17 21 24 25 25 26 23 18 19 22 20 19 20 19 18 15 14 15 16 16 15 13 12 10 10 10 9 9 8 7 6 6 5 4 4 3 3 2 2 2 3 4 4 5 6 6 7 7 7 7 7 7 7 6 6 7 7 7 7 7 7 8 8 8
11 11 11 12 14 14 14 14 14 13 13 11 9 7 5 5 6 8 11 12 12 15 19 22 24 26 26 21 15 17 23 23 22 23 22 19 17 15 14 16 17 16 16 15 14 13 12 11 11 10 9 8 6 6 6 6 5 5 5 5 6 6 6 5 5 5 5 6 7 7 7 7 6 7 7 6 7 7 7 7 7 7 7 7 8
11 11 12 13 14 15 15 14 14 14 15 14 12 9 6 4 4 5 8 10 12 14 16 19 22 24 24 22 18 19 24 24 22 22 21 19 17 16 15 16 17 18 18 17 16 15 14 13 12 10 8 7 6 6 5 4 4 4 5 7 8 9 10 9 9 8 7 7 7 8 8 8 8 8 8 8 8 8 7 7 7 7 6 6 6
12 12 12 12 13 15 15 15 16 16 16 16 15 12 9 6 3 3 5 7 10 12 14 16 19 22 24 24 22 23 24 23 20 20 19 18 18 16 15 17 18 20 20 18 17 16 16 15 13 10 8 6 4 2 2 2 3 4 6 9 11 12 12 12 12 11 11 10 11 10 10 10 10 10 10 10 9 9 8 8 7 7 6 6 5
12 12 12 13 13 14 16 16 16 17 16 16 15 14 13 10 7 2 3 6 8 10 11 14 17 20 22 23 23 24 24 23 22 21 19 18 19 17 15 17 19 20 20 19 18 17 16 14 12 10 8 7 4 0 2 2 4 6 8 12 13 13 14 14 14 13 13 13 13 14 13 13 14 13 13 13 12 12 11 10 9 8 7 7 6
13 13 13 14 13 13 15 17 17 18 18 16 16 17 17 15 11 7 2 3 7 9 10 12 15 18 21 24 23 23 24 24 24 24 22 20 18 17 16 17 19 20 20 19 18 18 17 13 12 10 9 9 7 4 5 6 7 8 10 13 13 13 14 15 15 15 16 16 16 16 16 16 16 16 16 15 15 15 13 13 12 10 10 9 8
14 14 13 12 12 12 14 16 17 19 19 18 18 19 19 17 14 10 7 3 2 7 10 12 14 17 20 23 24 23 23 23 25 27 26 22 19 18 18 19 20 21 20 19 18 19 18 14 10 8 7 7 8 6 8 10 10 8 11 13 12 12 12 14 15 16 17 17 17 17 18 18 18 17 17 17 18 17 16 16 14 13 13 12 9
13 13 12 11 12 13 15 17 18 19 19 18 18 18 19 20 18 14 10 7 4 2 6 9 13 16 18 20 21 20 22 23 24 25 25 23 22 22 21 20 21 21 20 20 19 19 20 14 5 8 11 11 12 12 11 11 11 11 14 15 14 14 13 13 14 15 15 15 16 17 18 19 18 18 17 17 18 19 19 19 16 14 14 13 11
12 12 12 12 12 14 16 17 17 17 17 19 19 18 20 22 22 20 16 11 6 2 1 4 7 11 15 17 17 18 21 24 25 24 24 24 24 24 23 22 22 21 20 19 18 20 23 18 16 22 23 19 19 20 19 18 16 14 15 15 14 13 12 12 13 13 13 14 15 16 17 18 18 18 17 17 17 18 20 21 19 15 14 13 11
12 12 12 12 12 14 15 15 16 17 17 18 19 19 21 23 23 22 21 18 13 8 4 1 2 4 7 10 11 14 17 21 24 26 23 22 23 25 26 25 25 25 24 22 23 27 28 24 24 28 27 23 21 20 22 23 18 14 11 10 10 10 11 12 12 12 12 13 14 14 15 15 16 16 16 16 15 15 17 21 20 16 14 13 10
11 11 12 12 12 13 15 15 16 17 17 18 19 20 20 22 22 22 21 21 20 17 14 9 5 3 3 5 6 9 12 15 18 19 18 19 23 27 28 29 30 29 28 27 29 31 31 28 25 24 25 25 24 22 22 21 15 9 7 6 7 8 9 8 8 8 8 9 10 11 10 10 11 11 12 12 13 11 13 19 20 16 15 14 11
10 10 11 12 13 14 15 16 17 18 19 20 22 23 21 21 21 20 19 20 20 19 19 18 15 11 5 3 5 7 10 12 13 15 15 19 25 29 29 29 29 29 29 30 31 31 30 27 23 23 25 26 24 22 20 16 11 8 6 4 4 4 3 2 1 1 1 2 4 5 5 5 5 5 6 7 8 9 11 16 18 17 16 15 12
9 9 10 12 13 14 16 17 18 19 20 21 23 23 22 21 21 20 19 18 18 17 18 19 19 18 14 5 3 7 10 11 12 14 16 19 24 27 27 27 27 28 29 31 32 31 28 24 22 23 26 25 23 20 17 14 12 10 7 6 6 5 5 5 4 4 4 4 3 3 3 3 3 3 4 4 5 6 10 16 18 17 16 14 11
8 9 10 11 12 13 14 16 17 18 19 20 22 22 21 20 20 20 19 18 17 16 17 18 18 19 19 13 4 4 9 12 15 15 17 20 24 25 23 22 24 27 30 31 30 27 25 23 22 22 23 22 20 18 17 17 14 11 9 8 6 6 6 6 6 6 6 5 5 5 4 4 4 5 4 3 1 3 10 16 17 15 13 10 8
8 9 10 10 11 12 13 14 15 16 17 19 20 21 20 19 18 18 18 17 16 16 17 18 18 18 19 18 12 6 4 11 17 19 19 21 24 25 23 19 20 24 27 28 27 25 23 23 22 21 20 19 17 18 20 18 14 11 10 8 6 6 6 6 6 6 6 6 6 6 5 5 5 4 3 3 3 5 9 12 12 11 9 7 6
9 9 9 10 11 11 12 13 13 14 16 19 19 20 19 17 16 17 17 15 15 16 17 19 19 19 18 17 16 13 7 5 11 18 22 23 24 25 23 21 21 21 21 23 23 22 21 21 21 20 19 19 20 22 21 17 14 12 10 9 7 7 6 6 6 6 6 6 6 6 6 5 4 3 3 3 3 5 6 7 8 8 6 5 4
9 10 10 10 11 10 10 12 12 13 16 18 18 18 17 15 16 17 16 14 14 15 18 18 18 18 17 16 16 15 11 7 6 10 16 19 20 21 21 21 21 18 17 21 22 20 19 18 17 18 20 22 23 23 19 16 14 13 11 10 9 7 7 6 5 5 6 6 6 5 5 4 3 3 3 3 4 4 4 4 4 5 5 4 4
10 11 12 12 12 13 13 13 12 13 15 17 17 17 15 14 15 16 15 14 15 16 17 18 17 16 16 15 15 15 14 10 7 6 7 9 13 15 16 18 20 19 20 22 23 20 18 17 17 18 21 22 21 20 17 15 14 13 12 11 9 8 7 6 6 6 7 7 7 6 6 5 4 3 3 2 2 2 2 2 3 4 5 5 4
9 10 12 13 13 13 14 14 14 15 17 18 17 15 13 12 13 14 13 14 16 17 18 18 18 17 16 15 13 13 14 13 10 7 7 8 9 10 11 13 15 16 18 20 21 20 21 21 20 20 20 19 17 17 16 15 14 13 12 11 9 9 8 8 9 9 8 8 8 7 6 5 3 3 3 2 2 2 2 2 3 3 4 4 4
9 10 12 13 13 13 13 13 14 15 16 17 16 14 13 12 12 13 15 15 17 18 19 20 20 19 18 16 14 12 12 13 10 7 9 10 12 12 13 14 14 15 16 17 18 20 22 22 21 19 18 17 16 16 16 15 14 13 12 11 10 9 9 9 9 10 9 9 8 8 7 5 3 3 3 2 2 2 2 2 2 2 2 3 2
11 12 13 14 13 13 13 14 14 14 13 13 13 13 13 13 13 15 16 17 17 18 20 20 21 21 20 18 16 14 12 11 9 8 8 10 13 16 17 16 16 17 17 16 15 16 19 21 21 19 18 18 18 18 16 16 15 14 13 12 10 9 9 8 8 9 10 10 9 9 7 6 5 3 2 2 1 0 0 0 0 1 2 3 3
11 12 13 13 13 13 14 14 14 13 13 12 12 12 13 14 16 17 17 17 17 18 19 21 22 22 21 20 18 16 14 11 10 11 12 11 11 15 19 19 20 20 21 21 21 21 21 22 22 21 21 20 20 20 18 17 16 15 14 12 10 9 8 7 8 9 11 11 11 10 8 6 5 3 2 1 1 1 1 1 1 2 4 4 4
11 12 13 13 13 14 15 15 14 13 13 12 11 12 14 16 17 17 17 17 17 17 18 19 20 21 22 22 21 19 17 14 12 13 14 14 13 13 17 21 23 25 26 27 27 26 26 26 25 25 24 23 21 20 19 17 16 15 14 12 10 9 8 7 8 10 12 12 11 10 8 6 4 3 2 2 2 2 1 1 2 4 4 4 4
12 13 14 14 15 14 15 16 15 15 14 13 12 13 15 17 17 17 18 18 18 18 17 18 20 21 23 23 22 21 19 17 15 14 14 14 15 15 16 18 22 25 28 30 31 29 28 27 26 26 25 24 22 21 20 19 18 16 14 12 10 9 8 8 10 12 13 12 10 9 7 6 4 4 3 3 2 1 1 2 4 5 4 4 4
13 15 16 16 16 16 17 18 18 17 16 15 15 15 16 18 18 18 18 18 18 18 18 18 19 20 21 21 20 21 20 19 17 16 14 14 15 16 16 17 20 21 22 25 29 30 30 29 29 28 27 26 25 24 23 21 18 16 14 12 10 10 11 11 13 14 13 11 10 8 7 6 5 4 3 3 2 1 1 2 3 4 4 4 4
16 17 17 17 17 17 18 19 20 19 18 18 18 19 19 20 20 20 19 19 19 19 18 19 18 18 18 18 19 21 21 19 17 17 16 15 16 17 16 16 19 19 16 17 21 25 27 28 27 26 25 24 24 23 20 19 18 16 15 14 13 13 14 14 15 15 14 12 10 10 9 8 7 6 4 3 2 1 1 1 2 2 2 4 5
17 17 16 17 17 18 18 20 20 19 19 19 20 21 21 21 21 20 19 20 20 20 20 20 19 18 18 17 17 19 20 18 17 17 16 14 16 18 18 20 21 19 16 15 16 18 19 19 20 20 20 20 19 18 17 18 18 17 15 14 14 15 15 15 14 13 13 14 13 12 10 9 7 6 5 4 2 2 1 1 1 2 2 3 4
17 17 16 16 16 17 18 19 19 19 19 19 20 20 21 21 21 20 20 21 21 21 21 20 18 18 17 16 16 16 16 16 16 16 16 15 16 17 19 22 23 21 19 19 19 17 17 19 21 22 21 20 18 17 19 21 19 16 13 11 12 13 14 14 14 13 14 15 14 11 9 8 6 5 4 3 2 1 1 1 1 2 3 3 5
17 17 16 16 16 17 17 18 18 18 18 19 20 20 21 21 21 21 21 21 21 21 21 20 18 18 18 18 17 15 13 13 14 15 15 15 14 14 14 18 21 23 23 23 22 20 18 17 18 17 17 17 16 17 20 23 20 17 15 13 13 14 14 14 15 16 15 15 12 10 8 7 5 4 3 2 2 2 1 1 2 3 3 5 6
Wind_Direction
164 183 195 195 192 193 193 192 187 184 193 197 197 202 208 207 202 189 175 167 164 163 164 169 170 166 161 155 146 134 123 104 90 91 94 98 100 97 97 101 114 130 141 147 154 159 152 152 158 160 157 151 149 147 156 174 182 173 144 136 153 153 141 147 149 144 140 136 139 143 118 94 84 83 75 70 70 64 53 38 32 27 4 352 349
162 180 195 194 190 193 196 197 193 186 190 195 192 196 201 203 200 187 175 170 167 166 166 168 170 169 165 158 148 132 117 103 101 101 104 107 106 101 99 101 106 117 128 138 148 150 144 145 151 154 163 167 153 137 141 156 168 174 162 146 145 147 148 155 158 158 161 164 164 155 143 119 86 86 77 66 72 76 64 44 40 36 336 324 346
173 181 188 189 184 188 196 198 195 191 192 196 194 194 198 200 197 187 178 172 170 169 165 166 169 171 168 160 149 131 119 115 112 112 111 110 107 103 101 103 107 110 115 124 130 131 131 139 143 145 158 159 143 133 137 151 162 173 180 170 154 149 152 168 183 189 181 170 173 174 165 145 108 93 75 65 73 79 75 69 66 74 54 307 322
177 183 183 184 183 184 193 198 199 196 193 195 194 193 195 196 193 187 180 173 174 172 166 169 172 171 168 160 149 134 126 123 118 117 115 109 104 100 97 95 96 100 107 113 115 113 113 122 129 130 134 135 134 137 143 158 169 175 180 175 165 158 159 176 196 200 189 171 166 133 126 173 135 105 83 72 79 81 78 79 78 83 81 60 22
176 181 183 180 182 187 197 200 197 196 197 198 197 193 188 188 191 189 181 176 176 175 175 179 174 169 163 152 144 133 129 130 123 119 116 111 104 98 92 86 83 87 96 104 108 108 108 114 120 120 121 128 136 145 152 159 168 176 178 174 171 166 163 168 181 193 193 187 178 133 135 196 134 127 117 87 83 78 72 71 69 75 80 76 71
181 181 180 178 185 189 195 201 204 206 199 171 142 141 147 160 183 186 181 179 181 182 185 183 176 170 163 154 148 138 132 133 128 123 119 113 106 98 92 87 84 84 92 105 110 108 109 112 113 115 117 129 145 149 151 154 158 165 165 164 165 160 157 157 160 172 182 187 190 190 193 177 141 148 153 119 97 75 64 67 69 75 81 77 71
186 187 178 180 190 191 199 205 186 84 68 66 68 89 139 165 183 185 181 183 185 186 186 182 175 172 169 163 156 147 139 137 134 129 124 115 108 103 100 101 98 98 104 116 121 115 112 115 114 114 115 126 145 147 146 148 151 156 156 156 157 154 155 155 156 159 155 163 178 182 171 155 148 156 166 149 127 85 68 73 73 77 82 79 72
188 192 183 183 190 195 195 99 76 66 61 66 81 116 162 182 187 184 182 184 185 183 182 181 179 176 173 163 153 150 144 141 139 132 123 115 107 105 108 109 105 103 107 121 135 128 109 110 117 117 115 121 129 134 139 142 147 152 153 154 155 155 160 158 158 161 154 145 143 140 138 142 144 145 152 151 142 118 91 84 78 76 77 76 73
185 186 175 175 181 175 97 88 86 79 79 100 113 130 167 186 183 178 179 181 183 183 181 182 186 184 175 160 152 151 146 141 139 132 126 119 107 105 108 111 111 112 114 123 137 132 108 98 114 126 125 122 124 127 130 132 139 148 153 157 155 155 157 154 153 155 152 147 144 139 128 120 116 112 118 123 124 129 125 113 99 83 73 68 68
166 160 149 149 147 115 100 104 106 111 127 130 129 135 134 84 122 161 177 179 181 182 182 183 187 187 178 166 157 152 149 145 140 135 133 128 122 119 115 114 117 123 125 125 131 131 120 110 121 135 136 127 125 128 128 127 131 139 149 156 158 154 146 142 143 141 144 148 146 139 131 125 121 115 115 117 118 125 129 131 125 104 85 70 64
140 133 126 119 114 109 109 114 117 122 136 135 130 133 113 53 51 96 164 183 185 183 183 184 185 186 181 174 166 155 152 152 147 143 139 135 134 132 130 127 124 128 128 125 125 118 110 115 125 134 136 130 127 124 120 118 119 124 130 137 146 149 140 134 134 131 134 142 144 140 136 133 133 130 132 135 134 135 136 135 126 113 103 90 74
136 128 122 110 102 102 105 114 121 125 135 133 131 140 150 153 150 127 129 197 196 192 189 186 184 183 180 177 172 161 157 156 152 149 144 141 140 138 135 129 126 129 128 126 124 112 108 117 124 129 131 132 130 120 116 115 115 116 118 121 125 131 133 131 129 129 133 138 138 135 129 122 120 123 128 134 138 141 141 137 131 125 112 102 94
135 123 112 102 93 92 96 105 114 119 128 134 137 147 157 162 169 181 194 198 209 211 202 192 187 183 179 175 171 165 161 156 150 149 147 145 142 140 139 132 129 131 132 130 124 117 123 126 126 127 129 133 130 121 119 117 115 115 115 116 116 120 125 127 128 131 135 136 134 130 124 118 117 120 123 124 126 135 138 135 132 129 119 113 108
129 115 106 98 88 88 101 110 107 112 134 145 149 160 170 170 172 181 186 194 210 214 202 187 181 181 179 174 169 164 157 152 147 147 150 150 149 147 143 137 135 137 137 132 126 129 137 138 140 142 141 142 136 130 127 123 119 119 119 118 118 121 126 128 130 134 136 134 133 130 124 119 116 117 118 120 126 133 138 137 131 123 120 119 110
121 115 112 106 101 106 127 126 117 134 163 162 161 170 176 175 179 187 191 199 205 202 191 183 178 177 177 172 166 160 154 149 148 152 156 161 163 161 151 142 140 145 144 136 133 144 151 156 160 156 151 145 140 137 134 129 125 125 126 125 125 128 131 133 134 134 132 130 131 128 122 118 116 115 111 108 114 128 139 143 140 135 128 123 118
128 129 132 128 126 133 149 137 135 172 177 169 167 170 173 176 184 193 199 202 197 188 196 205 197 185 178 173 166 159 153 150 150 154 161 176 182 177 164 149 149 158 155 143 141 149 154 160 164 160 153 145 145 145 138 134 132 129 129 129 130 133 134 133 131 130 129 129 130 127 122 118 115 112 107 102 102 112 128 142 149 148 142 132 127
119 122 121 101 102 114 127 199 197 179 178 181 179 178 180 181 184 194 203 202 192 193 206 208 198 180 165 157 148 144 144 141 143 149 160 183 194 195 184 163 165 183 179 164 153 149 146 147 147 143 138 135 138 140 135 131 129 127 128 127 130 132 130 128 128 129 130 129 129 126 121 118 114 108 103 100 98 99 104 109 117 129 136 137 128
63 67 64 53 52 54 63 103 139 164 181 192 194 192 191 190 190 197 205 204 195 194 198 193 177 157 143 139 135 141 147 136 133 139 158 181 190 201 204 183 175 198 200 190 174 158 148 140 136 129 123 123 123 122 119 119 119 121 123 124 126 127 125 124 124 127 128 128 128 126 122 118 115 109 103 101 100 98 96 96 93 88 88 103 118
61 60 54 54 60 63 69 84 110 165 186 198 202 199 193 190 190 193 201 204 199 190 180 167 163 163 163 164 165 172 169 150 145 146 169 211 204 207 213 200 185 198 204 200 191 174 159 142 133 129 121 117 118 117 114 111 115 116 117 119 122 123 122 120 121 123 125 126 127 126 125 122 118 114 108 105 104 104 101 97 93 88 85 86 97
54 62 63 59 58 60 67 78 93 125 161 187 197 196 187 181 180 184 193 198 198 193 178 162 167 179 183 186 192 189 177 166 162 156 177 229 232 219 215 213 201 196 201 202 199 189 177 163 150 141 129 120 120 121 115 109 113 115 116 119 120 121 123 122 123 124 124 128 131 130 130 128 123 118 115 112 109 110 109 106 101 96 92 89 89
43 48 56 57 55 53 55 63 77 95 115 142 170 182 181 178 177 180 186 189 192 192 185 176 179 188 191 191 194 191 184 180 178 170 185 216 236 234 220 219 214 205 205 207 205 200 192 184 175 165 153 146 142 137 130 119 116 115 118 124 127 128 130 130 133 134 134 137 138 140 141 137 132 128 125 122 121 119 116 112 109 104 97 92 91
45 45 49 51 50 48 49 53 60 65 70 84 109 142 164 176 180 180 181 181 180 183 186 186 187 192 193 192 192 192 190 193 198 197 202 216 239 246 228 222 220 214 211 212 212 207 202 200 196 192 187 185 185 178 166 152 145 137 130 134 141 145 145 142 142 146 150 150 148 151 151 145 142 141 140 139 136 136 132 126 119 115 108 99 95
45 44 45 49 48 46 47 48 50 52 55 63 74 91 125 166 184 186 186 183 177 180 186 187 188 191 191 191 197 199 196 199 208 216 222 226 237 246 237 226 223 221 215 213 215 212 206 206 207 207 206 205 206 207 206 202 197 198 209 222 218 200 190 180 168 164 167 168 168 171 171 165 162 159 160 161 155 151 148 142 135 126 120 108 101
44 46 44 44 45 43 41 40 42 47 51 56 64 77 101 142 175 188 195 191 183 187 191 191 192 192 191 197 211 211 203 204 212 223 232 233 235 247 247 235 228 227 224 216 212 212 211 209 210 212 211 209 210 215 222 228 232 240 250 257 263 259 251 244 231 214 206 202 196 195 199 195 188 187 186 183 175 168 161 155 148 136 127 115 103
48 51 47 43 42 40 36 34 35 38 40 45 51 60 75 101 145 177 193 195 192 195 197 198 200 201 201 205 212 211 209 210 216 226 235 239 240 245 247 244 236 230 229 224 215 212 211 210 210 207 201 198 200 209 221 235 247 261 279 285 282 275 269 265 261 255 248 243 234 225 223 220 215 213 210 205 199 189 180 172 165 154 145 132 114
52 52 50 46 43 41 37 36 37 37 36 37 40 46 56 70 104 159 184 192 197 201 201 202 207 210 210 208 209 211 215 219 226 232 237 239 239 240 244 246 241 233 230 226 220 215 212 211 209 200 190 181 174 198 234 254 274 287 304 308 301 290 282 275 270 268 263 260 257 251 245 239 235 233 231 226 218 210 203 196 189 179 168 157 140
54 52 52 50 46 43 40 39 41 42 40 40 40 41 47 51 56 84 181 197 202 205 207 208 210 213 214 213 212 214 220 230 238 242 246 245 239 239 242 243 241 236 229 223 220 217 213 208 199 188 183 179 169 74 351 325 304 300 310 315 306 295 288 282 278 277 275 271 267 262 257 251 247 245 245 241 233 225 219 216 213 203 191 180 166
52 49 48 49 46 43 41 40 42 42 43 44 44 46 50 51 50 50 65 209 217 216 217 218 217 219 222 221 220 222 229 239 241 243 252 257 252 247 245 242 237 232 228 222 214 206 198 189 178 168 169 184 201 251 302 309 310 307 315 317 305 291 282 278 276 276 276 276 272 269 266 261 257 255 253 251 245 237 228 220 219 216 209 198 181
53 50 48 48 46 43 41 40 39 39 39 39 41 45 49 51 51 51 56 73 203 221 226 228 227 229 231 229 230 232 238 244 243 243 249 258 261 258 253 242 231 229 227 216 203 193 182 170 162 164 174 200 224 249 282 293 293 300 316 316 300 286 276 269 268 268 268 270 269 269 270 269 268 266 261 257 253 248 239 229 224 222 215 205 191
54 51 49 48 46 45 43 42 40 37 36 35 35 38 42 45 48 50 52 58 69 176 224 232 234 238 240 239 238 237 240 243 243 242 246 250 251 253 250 238 228 227 219 202 194 191 183 177 200 235 226 224 234 247 259 264 265 284 305 300 285 278 272 264 265 265 264 266 265 266 270 271 273 273 267 262 257 251 246 240 238 236 224 211 199
51 47 45 44 41 40 39 39 38 36 35 35 33 34 38 41 44 47 49 51 54 67 225 239 239 241 243 241 238 235 235 238 239 240 242 241 238 235 233 229 223 215 205 202 208 208 206 216 242 246 237 224 225 236 233 225 240 275 291 283 272 269 266 261 262 261 262 264 265 267 269 270 272 273 273 270 262 254 247 240 240 243 235 221 212
45 41 39 36 34 32 30 29 30 30 30 30 30 32 35 36 38 43 48 53 57 58 50 357 273 255 250 242 234 229 230 233 237 238 235 229 223 218 216 218 215 207 207 218 227 225 226 236 242 237 230 218 214 221 216 216 239 269 273 264 261 259 259 260 261 264 269 273 274 275 274 271 271 271 272 274 270 262 247 235 232 234 226 217 214
42 38 35 31 27 26 25 23 24 25 25 26 27 28 29 31 34 37 40 46 51 54 56 50 30 338 287 256 235 226 226 229 232 232 224 212 209 208 208 212 212 211 214 221 224 223 225 233 235 224 215 213 215 216 215 223 242 250 235 242 254 251 254 260 264 272 279 282 284 284 282 278 272 267 268 273 274 269 247 229 223 218 210 205 209
40 35 32 26 22 20 20 19 20 20 22 25 25 25 24 24 27 30 31 35 38 43 48 47 40 31 10 274 238 230 229 229 228 223 214 206 205 205 208 213 215 216 218 218 217 218 222 229 230 215 208 212 216 213 216 222 219 200 192 197 201 203 201 193 207 303 319 313 308 299 297 296 284 275 276 277 276 269 242 219 208 202 199 202 209
35 30 26 21 17 16 14 13 14 15 17 19 19 18 19 19 20 21 22 22 25 29 33 35 33 30 25 11 235 229 230 228 225 220 213 206 205 208 214 218 219 220 219 216 213 216 223 229 224 213 210 211 210 208 209 201 184 173 163 148 138 121 106 103 94 82 73 57 38 14 351 348 344 328 317 303 283 257 222 202 193 192 195 201 211
30 23 20 17 14 14 12 11 13 13 12 12 10 8 10 12 13 15 15 13 13 14 16 18 19 19 19 17 1 240 230 226 223 222 218 214 214 217 219 219 221 222 219 215 214 220 228 225 216 210 208 206 206 203 193 180 170 163 156 146 131 113 107 101 97 92 84 75 64 48 40 34 21 3 350 352 351 202 193 187 184 188 194 201 213
28 22 19 16 13 11 11 11 13 13 10 6 2 360 0 1 2 5 7 7 6 4 1 1 1 3 6 8 7 353 265 232 227 227 228 226 226 229 232 230 231 229 224 219 220 224 224 216 210 206 201 198 196 188 179 173 167 160 158 154 139 128 120 106 98 91 81 76 70 58 57 57 48 40 53 78 101 154 180 185 187 190 193 197 208
24 19 16 14 10 6 5 7 7 8 6 2 358 356 354 352 352 352 353 356 359 358 354 351 349 348 350 355 358 355 343 283 241 233 233 234 235 237 239 235 229 228 232 232 227 218 212 209 207 199 187 179 177 176 175 173 166 161 162 160 152 144 133 117 100 88 78 75 69 62 62 64 73 103 132 143 152 164 177 187 191 186 177 176 193
17 14 8 3 2 358 357 360 1 359 357 355 354 353 349 345 341 339 339 344 347 346 344 342 340 339 337 340 346 346 342 334 299 250 234 234 238 239 236 228 219 215 225 232 227 217 207 201 195 184 172 167 170 173 173 171 167 166 168 164 158 153 143 129 111 99 94 90 82 76 76 76 94 136 162 182 187 185 186 187 181 166 153 162 190
9 6 358 352 351 350 349 350 350 347 346 346 347 346 342 337 333 329 329 334 334 330 329 328 327 328 328 327 330 334 335 331 313 271 226 213 222 227 224 216 212 213 218 222 220 211 194 176 169 170 167 167 170 171 170 170 172 173 172 167 160 155 149 142 135 128 119 113 107 102 100 102 107 121 133 145 159 177 188 173 157 151 156 174 196
358 353 349 345 342 342 340 338 338 338 339 341 342 339 333 328 326 322 320 324 324 319 318 319 319 318 321 321 317 319 325 326 309 269 229 194 186 193 194 191 193 199 205 203 195 184 172 162 163 168 169 169 172 173 172 175 178 177 173 169 164 161 159 158 153 145 134 130 129 125 122 121 117 118 122 126 136 152 169 174 174 179 189 200 211
348 344 344 341 335 333 332 331 332 333 334 336 335 330 324 319 314 309 310 315 317 314 312 313 313 312 313 315 313 308 310 317 311 275 238 213 193 179 172 172 172 171 176 181 177 169 164 163 165 169 170 171 175 178 180 180 179 178 175 172 170 167 164 161 156 151 146 145 146 145 142 141 146 149 145 142 146 153 163 183 193 202 227 247 259
343 341 342 339 332 329 329 328 328 328 328 330 326 319 315 311 304 303 307 310 310 308 307 305 305 305 305 306 308 306 303 302 295 278 261 238 211 192 183 184 185 178 174 178 181 177 169 166 165 167 173 177 177 180 184 183 179 178 177 175 172 167 161 157 156 158 160 159 156 156 155 157 162 164 156 144 130 98 90 90 43 306 305 312 322
338 336 336 334 329 325 324 324 325 326 325 322 317 311 305 299 298 301 305 307 304 303 303 299 297 297 297 297 300 301 300 295 280 270 272 268 241 214 201 195 191 186 181 180 182 182 175 169 167 168 174 179 180 181 182 182 181 179 176 173 169 162 156 154 157 161 164 164 163 163 162 163 165 162 153 130 80 49 45 45 8 333 329 335 339
330 330 332 331 326 322 321 321 321 323 321 316 310 303 296 292 294 299 302 302 302 300 298 295 293 291 290 291 292 292 291 290 282 273 270 267 261 243 219 201 190 186 184 182 181 180 175 171 170 172 175 179 181 181 181 179 178 176 173 170 165 158 153 152 156 162 165 165 165 164 162 162 163 155 138 118 101 86 55 12 337 332 338 345 340
329 330 331 328 324 320 318 317 316 316 314 310 304 298 293 292 294 297 296 296 297 296 292 289 288 286 285 286 286 286 285 282 279 281 277 266 256 247 236 220 202 191 186 183 181 180 177 175 175 176 177 177 178 180 179 175 173 172 169 165 159 154 153 155 158 160 160 159 157 158 158 159 158 153 145 134 120 90 22 337 325 329 341 345 335
328 328 328 325 321 318 316 314 314 313 311 308 304 299 296 295 295 294 293 291 289 287 285 282 281 281 281 280 278 279 281 280 276 276 278 272 255 241 234 227 215 204 196 190 185 181 180 179 178 177 176 175 176 178 177 174 174 174 170 165 162 159 158 158 158 157 156 154 153 153 157 161 159 154 147 134 118 86 19 347 338 339 342 335 327
326 325 324 322 318 315 314 312 311 312 311 309 306 302 299 296 294 291 289 286 283 280 278 277 277 276 274 271 270 271 273 276 275 270 270 272 265 249 235 225 217 209 206 204 196 188 184 181 177 176 176 175 176 181 186 187 187 185 176 169 168 167 165 165 164 161 158 156 155 155 156 157 153 146 137 127 119 117 61 7 360 358 345 335 335
323 321 320 317 314 312 312 311 310 311 310 307 304 302 300 297 294 291 286 281 279 277 276 275 274 272 268 264 262 263 264 264 266 266 265 267 266 254 240 232 226 218 217 223 218 207 202 199 194 192 192 190 189 196 205 206 201 193 185 179 176 173 170 170 170 167 162 158 157 158 157 154 153 150 145 143 141 129 102 48 26 17 2 346 338
319 317 315 313 311 311 310 308 307 307 305 302 301 300 299 297 295 291 287 281 278 277 276 273 269 266 264 262 259 255 253 252 254 258 258 259 260 256 246 239 236 233 233 235 235 236 239 236 227 217 208 203 206 214 213 205 196 186 180 178 178 176 173 170 168 167 166 163 160 159 157 156 159 162 160 158 150 123 113 103 38 7 353 340 334
316 316 315 314 315 314 310 307 306 304 302 301 300 297 294 293 291 288 283 279 276 274 273 271 268 263 261 262 263 259 253 248 246 247 249 246 242 244 247 245 243 240 238 236 237 236 233 231 231 227 213 207 212 217 209 197 186 176 171 169 171 174 173 170 167 166 165 164 160 158 159 161 164 165 161 150 134 110 93 67 12 350 339 335 331